This is the latest recevied weather packets stored in our database for station/object KA3BQE-13. If no packets are shown the sender has not sent any weather packets the latest 10 day(s).
| Time | Temp. | Humidity | Pressure | Rain* | Wind** | Luminosity | Snow |
|---|---|---|---|---|---|---|---|
| 1777576470 | 15° C | 42% | 1017.6 hPa | 0 mm | - | 272 W/m² | - |
| 1777576167 | 15° C | 46% | 1017.6 hPa | 0 mm | - | 253 W/m² | - |
| 1777575867 | 15° C | 45% | 1017.7 hPa | 0 mm | - | 255 W/m² | - |
| 1777575564 | 15.56° C | 44% | 1017.7 hPa | 0 mm | - | 317 W/m² | - |
| 1777575260 | 15° C | 44% | 1017.8 hPa | 0 mm | - | 381 W/m² | - |
| 1777574956 | 15° C | 47% | 1017.6 hPa | 0 mm | - | 254 W/m² | - |
| 1777574652 | 15° C | 42% | 1017.8 hPa | 0 mm | - | 291 W/m² | - |
| 1777574350 | 15° C | 44% | 1017.7 hPa | 0 mm | - | 295 W/m² | - |
| 1777574050 | 15° C | 43% | 1017.7 hPa | 0 mm | - | 290 W/m² | - |
| 1777573745 | 15° C | 44% | 1018 hPa | 0 mm | - | 268 W/m² | - |
| 1777573441 | 14.44° C | 43% | 1018 hPa | 0 mm | - | 190 W/m² | - |
| 1777573137 | 15° C | 43% | 1018.2 hPa | 0 mm | - | 193 W/m² | - |
| 1777572834 | 15.56° C | 41% | 1018 hPa | 0 mm | - | 311 W/m² | - |
| 1777572530 | 15.56° C | 43% | 1018 hPa | 0 mm | - | 472 W/m² | - |
| 1777572225 | 15° C | 46% | 1018 hPa | 0 mm | - | 357 W/m² | - |
| 1777571921 | 15.56° C | 44% | 1018.1 hPa | 0 mm | - | 311 W/m² | - |
| 1777571616 | 15° C | 45% | 1018.1 hPa | 0 mm | - | 357 W/m² | - |
| 1777571314 | 15° C | 44% | 1018.1 hPa | 0 mm | - | 326 W/m² | - |
| 1777571009 | 15° C | 42% | 1018.4 hPa | 0 mm | - | 372 W/m² | - |
| 1777570706 | 15° C | 42% | 1018.5 hPa | 0 mm | - | 333 W/m² | - |
| 1777570402 | 16.67° C | 42% | 1018.5 hPa | 0 mm | - | 916 W/m² | - |
| 1777570098 | 16.11° C | 44% | 1018.6 hPa | 0 mm | - | 930 W/m² | - |
| 1777569794 | 16.67° C | 43% | 1018.7 hPa | 0 mm | - | 948 W/m² | - |
| 1777569490 | 15.56° C | 43% | 1018.7 hPa | 0 mm | - | 953 W/m² | - |
| 1777569187 | 15.56° C | 47% | 1018.8 hPa | 0 mm | - | 517 W/m² | - |
* Rain latest hour (hover to see other rain measurements)
** Current wind speed in m/s (hover to see current wind gust speed)